When you browse on this site, cookies collect data to enhance your experience and personalize the content and advertising you see.
Visit our Privacy Policy to learn more. By continuing to use the site, you agree to this use of cookies and data.
  • In Portugal
  • List of Countries
  • For 7 days
  • Water Temperature
  • Weather Map
  • Weather Widgets
  • user-avatar
    Login

    Hourly Weather Novotroickoe

    Today, 2 June, Tuesday

    Time Temperature Precipitation Wind Pressure Humidity
    00:00 +8°C° 0 mm 4 mps 745 mmHg 89%
    01:00 +8°C° 0 mm 4 mps 745 mmHg 88%
    02:00 +8°C° 0 mm 4 mps 745 mmHg 87%
    03:00 +10°C° 0 mm 4 mps 746 mmHg 86%
    04:00 +9°C° 0 mm 5 mps 746 mmHg 85%
    05:00 +9°C° 0 mm 5 mps 745 mmHg 83%
    06:00 +9°C° 0 mm 6 mps 745 mmHg 82%
    07:00 +9°C° 0 mm 6 mps 745 mmHg 82%
    08:00 +9°C° 0 mm 6 mps 746 mmHg 82%
    09:00 +10°C° 0 mm 6 mps 746 mmHg 82%
    10:00 +10°C° 0.8 mm 6 mps 746 mmHg 85%
    11:00 +10°C° 0.8 mm 5 mps 746 mmHg 89%
    12:00 +9°C° 0.8 mm 5 mps 746 mmHg 93%
    13:00 +10°C° 0.8 mm 5 mps 746 mmHg 94%
    14:00 +10°C° 0.8 mm 5 mps 746 mmHg 94%
    15:00 +10°C° 0.8 mm 5 mps 746 mmHg 95%
    16:00 +10°C° 0 mm 5 mps 746 mmHg 95%
    17:00 +11°C° 0 mm 4 mps 745 mmHg 95%
    18:00 +11°C° 0 mm 4 mps 745 mmHg 95%
    19:00 +11°C° 0 mm 4 mps 745 mmHg 95%
    20:00 +12°C° 0 mm 4 mps 746 mmHg 95%
    21:00 +12°C° 0 mm 4 mps 746 mmHg 95%
    22:00 +11°C° 0 mm 4 mps 746 mmHg 95%
    23:00 +11°C° 0 mm 4 mps 745 mmHg 96%

    Tomorrow, 3 June, Wednesday

    Time Temperature Precipitation Wind Pressure Humidity
    00:00 +11°C° 0 mm 4 mps 745 mmHg 96%
    01:00 +11°C° 0 mm 4 mps 745 mmHg 96%
    02:00 +12°C° 0 mm 4 mps 745 mmHg 96%
    03:00 +12°C° 0 mm 4 mps 746 mmHg 96%
    04:00 +12°C° 0 mm 5 mps 745 mmHg 96%
    05:00 +12°C° 0 mm 5 mps 745 mmHg 96%
    06:00 +12°C° 0 mm 5 mps 745 mmHg 95%
    07:00 +13°C° 0 mm 5 mps 745 mmHg 92%
    08:00 +14°C° 0 mm 5 mps 745 mmHg 88%
    09:00 +15°C° 0 mm 6 mps 745 mmHg 85%
    10:00 +17°C° 0 mm 6 mps 745 mmHg 81%
    11:00 +18°C° 0 mm 7 mps 744 mmHg 78%
    12:00 +20°C° 0 mm 8 mps 744 mmHg 74%
    13:00 +20°C° 0 mm 8 mps 744 mmHg 75%
    14:00 +20°C° 0 mm 8 mps 744 mmHg 76%
    15:00 +20°C° 0 mm 8 mps 744 mmHg 78%
    16:00 +18°C° 0 mm 8 mps 743 mmHg 79%
    17:00 +18°C° 0 mm 7 mps 742 mmHg 81%
    18:00 +18°C° 0 mm 7 mps 742 mmHg 82%
    19:00 +17°C° 0.2 mm 7 mps 742 mmHg 84%
    20:00 +16°C° 0.2 mm 6 mps 742 mmHg 85%
    21:00 +16°C° 0.2 mm 6 mps 742 mmHg 87%
    22:00 +15°C° 1.9 mm 6 mps 742 mmHg 90%
    23:00 +15°C° 1.9 mm 7 mps 741 mmHg 92%

    Day after tomorrow, 4 June, Thursday

    Time Temperature Precipitation Wind Pressure Humidity
    00:00 +15°C° 1.9 mm 7 mps 741 mmHg 95%
    01:00 +15°C° 3.1 mm 7 mps 741 mmHg 95%
    02:00 +15°C° 3.1 mm 7 mps 741 mmHg 96%
    03:00 +14°C° 3.1 mm 7 mps 741 mmHg 96%
    04:00 +14°C° 1.7 mm 7 mps 741 mmHg 96%
    05:00 +14°C° 1.7 mm 6 mps 741 mmHg 96%
    06:00 +14°C° 1.7 mm 6 mps 741 mmHg 96%
    07:00 +14°C° 0.9 mm 5 mps 742 mmHg 96%
    08:00 +14°C° 0.9 mm 5 mps 742 mmHg 95%
    09:00 +15°C° 0.9 mm 5 mps 742 mmHg 95%
    10:00 +17°C° 0.9 mm 4 mps 742 mmHg 94%
    11:00 +17°C° 0.9 mm 4 mps 742 mmHg 93%
    12:00 +18°C° 0.9 mm 3 mps 742 mmHg 92%
    13:00 +18°C° 1.6 mm 3 mps 742 mmHg 92%
    14:00 +17°C° 1.6 mm 3 mps 743 mmHg 93%
    15:00 +17°C° 1.6 mm 3 mps 743 mmHg 94%
    16:00 +17°C° 1.3 mm 2 mps 743 mmHg 95%
    17:00 +17°C° 1.3 mm 2 mps 742 mmHg 96%
    18:00 +18°C° 1.3 mm 1 mps 742 mmHg 97%
    19:00 +18°C° 0.2 mm 1 mps 742 mmHg 97%
    20:00 +16°C° 0.2 mm 1 mps 742 mmHg 97%
    21:00 +16°C° 0.2 mm 1 mps 743 mmHg 97%
    22:00 +16°C° 0.1 mm 1 mps 743 mmHg 98%
    23:00 +15°C° 0.1 mm 1 mps 743 mmHg 98%

    5 June, Friday

    Time Temperature Precipitation Wind Pressure Humidity
    00:00 +15°C° 0.1 mm 1 mps 743 mmHg 98%
    01:00 +15°C° 0.1 mm 1 mps 743 mmHg 98%
    02:00 +15°C° 0.1 mm 1 mps 743 mmHg 98%
    03:00 +15°C° 0.1 mm 1 mps 743 mmHg 98%
    04:00 +16°C° 0.1 mm 1 mps 743 mmHg 98%
    05:00 +16°C° 0.1 mm 1 mps 743 mmHg 97%
    06:00 +18°C° 0.1 mm 1 mps 743 mmHg 97%
    07:00 +19°C° 0.1 mm 1 mps 743 mmHg 94%
    08:00 +19°C° 0.1 mm 1 mps 743 mmHg 91%
    09:00 +20°C° 0.1 mm 1 mps 743 mmHg 88%
    10:00 +21°C° 0.7 mm 1 mps 743 mmHg 85%
    11:00 +21°C° 0.7 mm 2 mps 743 mmHg 83%
    12:00 +23°C° 0.7 mm 2 mps 743 mmHg 80%
    13:00 +21°C° 1.6 mm 2 mps 743 mmHg 82%
    14:00 +21°C° 1.6 mm 3 mps 743 mmHg 83%
    15:00 +21°C° 1.6 mm 3 mps 743 mmHg 84%
    16:00 +20°C° 2.1 mm 4 mps 743 mmHg 87%
    17:00 +19°C° 2.1 mm 4 mps 743 mmHg 90%
    18:00 +17°C° 2.1 mm 5 mps 743 mmHg 93%
    19:00 +17°C° 1.1 mm 4 mps 743 mmHg 94%
    20:00 +17°C° 1.1 mm 4 mps 744 mmHg 95%
    21:00 +15°C° 1.1 mm 4 mps 744 mmHg 96%
    22:00 +15°C° 0.3 mm 4 mps 744 mmHg 96%
    23:00 +14°C° 0.3 mm 3 mps 744 mmHg 97%

    6 June, Saturday

    Time Temperature Precipitation Wind Pressure Humidity
    00:00 +14°C° 0.3 mm 3 mps 744 mmHg 97%
    01:00 +14°C° 0 mm 3 mps 744 mmHg 97%
    02:00 +14°C° 0 mm 2 mps 744 mmHg 98%
    03:00 +14°C° 0 mm 2 mps 744 mmHg 98%
    04:00 +15°C° 0 mm 2 mps 745 mmHg 97%
    05:00 +15°C° 0 mm 1 mps 745 mmHg 97%
    06:00 +15°C° 0 mm 1 mps 745 mmHg 96%
    07:00 +16°C° 0 mm 1 mps 745 mmHg 95%
    08:00 +16°C° 0 mm 1 mps 746 mmHg 93%
    09:00 +18°C° 0 mm 1 mps 746 mmHg 92%
    10:00 +18°C° 0 mm 1 mps 746 mmHg 90%
    11:00 +17°C° 0 mm 2 mps 746 mmHg 89%
    12:00 +18°C° 0 mm 2 mps 747 mmHg 87%
    13:00 +18°C° 0 mm 2 mps 747 mmHg 86%
    14:00 +18°C° 0 mm 2 mps 747 mmHg 85%
    15:00 +19°C° 0 mm 2 mps 747 mmHg 84%
    16:00 +18°C° 0 mm 2 mps 747 mmHg 86%
    17:00 +18°C° 0 mm 3 mps 747 mmHg 87%
    18:00 +17°C° 0 mm 3 mps 747 mmHg 88%
    19:00 +16°C° 0 mm 3 mps 747 mmHg 90%
    20:00 +14°C° 0 mm 3 mps 748 mmHg 92%
    21:00 +13°C° 0 mm 3 mps 748 mmHg 94%
    22:00 +13°C° 0 mm 2 mps 748 mmHg 95%
    23:00 +13°C° 0 mm 2 mps 748 mmHg 96%

    7 June, Sunday

    Time Temperature Precipitation Wind Pressure Humidity
    00:00 +12°C° 0 mm 2 mps 749 mmHg 97%
    01:00 +10°C° 0 mm 2 mps 749 mmHg 97%
    02:00 +10°C° 0 mm 2 mps 749 mmHg 97%
    03:00 +10°C° 0 mm 2 mps 749 mmHg 97%
    04:00 +10°C° 0 mm 2 mps 749 mmHg 95%
    05:00 +12°C° 0 mm 2 mps 749 mmHg 94%
    06:00 +13°C° 0 mm 2 mps 749 mmHg 92%
    07:00 +14°C° 0 mm 2 mps 749 mmHg 87%
    08:00 +16°C° 0 mm 2 mps 750 mmHg 81%
    09:00 +17°C° 0 mm 2 mps 750 mmHg 76%
    10:00 +18°C° 0 mm 2 mps 750 mmHg 75%
    11:00 +19°C° 0 mm 2 mps 750 mmHg 74%
    12:00 +19°C° 0 mm 2 mps 750 mmHg 73%
    13:00 +19°C° 0 mm 2 mps 750 mmHg 74%
    14:00 +19°C° 0 mm 2 mps 750 mmHg 75%
    15:00 +19°C° 0 mm 2 mps 750 mmHg 76%
    16:00 +19°C° 0 mm 2 mps 750 mmHg 78%
    17:00 +18°C° 0 mm 2 mps 750 mmHg 80%
    18:00 +18°C° 0 mm 2 mps 749 mmHg 82%
    19:00 +17°C° 0 mm 2 mps 749 mmHg 85%
    20:00 +15°C° 0 mm 2 mps 749 mmHg 88%
    21:00 +14°C° 0 mm 2 mps 749 mmHg 90%
    22:00 +14°C° 0 mm 1 mps 749 mmHg 91%
    23:00 +14°C° 0 mm 1 mps 749 mmHg 92%
    Show more